Tracking 20083 objects as of 9-Dec-2019
HD Live streaming from Space Station
objects crossing your sky now

COSMOS 2251 DEB

Track COSMOS 2251 DEB now!
10-day predictions


NORAD ID: 38199
Int'l Code: 1993-036BSP
Perigee: 757.5 km
Apogee: 1,318.2 km
Inclination: 74.0 °
Period: 105.8 minutes
Semi major axis: 7408 km
RCS: 0.0096 m2 (small)
Launch date: June 16, 1993
Source: Commonwealth of Independent States (former USSR) (CIS)
Launch site: PLESETSK MISSILE AND SPACE COMPLEX (PKMTR)

Note: This is SATELLITE DEBRIS
aabbcc
Your satellite tracking list
Your tracking list is empty




NASA's NSSDC Master Catalog

Two Line Element Set (TLE):
1 38199U 93036BSP 19341.90771508  .00000050  00000-0  57055-4 0  9997
2 38199  73.9572  57.1625 0378407  56.3293 307.3305 13.61361623475962
Source of the keplerian elements: AFSPC